SVA529 LROP-OEJN

Flight info

Callsign SVA529
Flight time N/A
Altitude 38000
Route POLUN DCT TIMUR/N0443F370 N181 NIKTI UN127 IMR UN618 YOYYO UN128 YUNUS/N0441F390 UN128 RDS UL995 VANZA N134 KOMEZ M855 RASDA A16 CVO A727 LXR M999 MUVOL
Aircraft A20N/M-SDE2E3FGHIRWXY/LB1

Departure

Time 2026-04-30 08:49
Airport Bucharest Henri Coandă International Airport (LROP)

Arrival

Time N/A
Airport King Abdulaziz International Airport (OEJN)
Time Latitude Longitude Altitude Speed Heading
2026-04-30 08:20 44.57129 26.08006 322 ft 0 kts 174°
2026-04-30 08:38 44.57134 26.08006 322 ft 2 kts 137°
2026-04-30 08:38 44.57138 26.07995 319 ft 0 kts 46°
2026-04-30 08:38 44.57131 26.08006 321 ft 0 kts 159°
2026-04-30 08:38 44.57138 26.07995 322 ft 0 kts 46°
2026-04-30 08:39 44.57134 26.07995 318 ft 0 kts 146°
2026-04-30 08:40 44.57134 26.07994 318 ft 0 kts 146°
2026-04-30 08:40 44.57148 26.07989 321 ft 2 kts 189°
2026-04-30 08:41 44.57163 26.07995 319 ft 2 kts 200°
2026-04-30 08:41 44.57180 26.07999 319 ft 2 kts 164°
2026-04-30 08:41 44.57194 26.07988 319 ft 2 kts 98°
2026-04-30 08:41 44.57194 26.07971 319 ft 1 kts 90°
2026-04-30 08:42 44.57194 26.07969 321 ft 0 kts 90°
2026-04-30 08:42 44.57196 26.07982 319 ft 6 kts 83°
2026-04-30 08:42 44.57202 26.08069 321 ft 10 kts 84°
2026-04-30 08:43 44.57209 26.08161 319 ft 9 kts 84°
2026-04-30 08:43 44.57216 26.08244 322 ft 8 kts 83°
2026-04-30 08:43 44.57221 26.08319 321 ft 7 kts 84°
2026-04-30 08:43 44.57226 26.08387 321 ft 7 kts 84°
2026-04-30 08:44 44.57230 26.08450 322 ft 6 kts 84°
2026-04-30 08:44 44.57249 26.08494 321 ft 5 kts 32°
2026-04-30 08:44 44.57279 26.08502 322 ft 4 kts
2026-04-30 08:44 44.57307 26.08496 321 ft 4 kts 350°
2026-04-30 08:45 44.57337 26.08490 322 ft 5 kts 353°
2026-04-30 08:45 44.57375 26.08484 321 ft 7 kts 354°
2026-04-30 08:45 44.57471 26.08471 320 ft 21 kts 354°
2026-04-30 08:45 44.57635 26.08460 322 ft 22 kts 22°
2026-04-30 08:46 44.57671 26.08581 322 ft 0 kts 85°
2026-04-30 08:48 44.57672 26.08596 323 ft 11 kts 85°
2026-04-30 08:48 44.57708 26.09038 322 ft 78 kts 84°
2026-04-30 08:48 44.57783 26.10057 322 ft 128 kts 84°
2026-04-30 08:48 44.57891 26.11445 617 ft 146 kts 80°
2026-04-30 08:49 44.57991 26.12858 1292 ft 145 kts 80°
2026-04-30 08:49 44.58083 26.14273 1958 ft 146 kts 81°
2026-04-30 08:49 44.58173 26.15754 2390 ft 163 kts 82°
2026-04-30 08:49 44.58272 26.17423 2878 ft 181 kts 83°
2026-04-30 08:50 44.58402 26.19289 3264 ft 204 kts 82°
2026-04-30 08:50 44.58588 26.21366 3735 ft 226 kts 82°
2026-04-30 08:50 44.58787 26.23636 4333 ft 241 kts 83°
2026-04-30 08:50 44.58982 26.26009 5207 ft 246 kts 84°
2026-04-30 08:51 44.59150 26.28435 5978 ft 255 kts 91°
2026-04-30 08:51 44.58755 26.30870 6728 ft 260 kts 118°
2026-04-30 08:51 44.57595 26.32829 7481 ft 266 kts 144°
2026-04-30 08:51 44.55886 26.33855 8239 ft 273 kts 171°
2026-04-30 08:52 44.53974 26.34150 9008 ft 279 kts 174°
2026-04-30 08:52 44.52032 26.34403 9797 ft 285 kts 174°
2026-04-30 08:52 44.50023 26.34668 10544 ft 292 kts 175°
2026-04-30 08:52 44.47957 26.34949 10912 ft 311 kts 175°
2026-04-30 08:53 44.45728 26.35262 11232 ft 330 kts 175°
2026-04-30 08:53 44.43419 26.35594 11991 ft 333 kts 175°
2026-04-30 08:53 44.41118 26.35855 12872 ft 331 kts 183°
2026-04-30 08:53 44.38873 26.35233 13615 ft 331 kts 204°
2026-04-30 08:54 44.36935 26.33509 14319 ft 332 kts 224°
2026-04-30 08:54 44.35562 26.30925 14988 ft 334 kts 244°
2026-04-30 08:54 44.34883 26.27837 15844 ft 328 kts 256°
2026-04-30 08:54 44.34309 26.24790 16792 ft 324 kts 253°
2026-04-30 08:55 44.33633 26.21801 16937 ft 323 kts 251°
2026-04-30 08:55 44.32889 26.18879 16987 ft 324 kts 249°
2026-04-30 08:55 44.32064 26.15940 16983 ft 326 kts 248°
2026-04-30 08:55 44.31170 26.13013 16957 ft 329 kts 246°
2026-04-30 08:56 44.30268 26.10134 16932 ft 315 kts 248°
2026-04-30 08:56 44.29521 26.07331 16688 ft 305 kts 258°
2026-04-30 08:56 44.29448 26.04333 15727 ft 320 kts 278°
2026-04-30 08:56 44.30282 26.01346 14665 ft 342 kts 301°
2026-04-30 08:57 44.31758 25.98702 14042 ft 347 kts 306°
2026-04-30 08:57 44.33286 25.96086 13510 ft 344 kts 306°
2026-04-30 08:57 44.34791 25.93491 12995 ft 342 kts 306°
2026-04-30 08:57 44.36256 25.90940 12493 ft 339 kts 306°
2026-04-30 08:58 44.37715 25.88360 12067 ft 335 kts 306°
2026-04-30 08:58 44.39124 25.85845 11920 ft 322 kts 306°
2026-04-30 08:58 44.40473 25.83428 11766 ft 306 kts 306°
2026-04-30 08:58 44.41765 25.81101 11152 ft 305 kts 306°
2026-04-30 08:59 44.43072 25.78686 10402 ft 316 kts 306°
2026-04-30 08:59 44.44423 25.76115 10082 ft 333 kts 305°
2026-04-30 08:59 44.45811 25.73474 10031 ft 339 kts 309°
2026-04-30 08:59 44.47548 25.71278 10019 ft 343 kts 327°
2026-04-30 09:00 44.49719 25.69859 9383 ft 353 kts 341°
2026-04-30 09:00 44.52257 25.69282 8782 ft 376 kts
2026-04-30 09:00 44.54843 25.69830 8714 ft 377 kts 18°
2026-04-30 09:00 44.57186 25.71446 8697 ft 376 kts 36°
2026-04-30 09:01 44.59045 25.73962 8589 ft 366 kts 55°
2026-04-30 09:01 44.60161 25.77074 7824 ft 363 kts 76°
2026-04-30 09:01 44.60353 25.80570 7154 ft 359 kts 98°
2026-04-30 09:01 44.59587 25.83857 6540 ft 354 kts 120°
2026-04-30 09:02 44.56734 25.89352 5362 ft 343 kts 126°
2026-04-30 09:02 44.55292 25.91994 4729 ft 339 kts 126°
2026-04-30 09:02 44.53851 25.94568 4382 ft 328 kts 126°
2026-04-30 09:03 44.52469 25.96997 4296 ft 310 kts 126°
2026-04-30 09:03 44.51156 25.99271 4264 ft 290 kts 127°
2026-04-30 09:03 44.50201 26.00539 4261 ft 282 kts 142°
2026-04-30 09:03 44.47833 26.01695 4265 ft 269 kts 173°
2026-04-30 09:04 44.46014 26.01316 4257 ft 261 kts 197°
2026-04-30 09:04 44.44500 26.00027 4214 ft 253 kts 221°
2026-04-30 09:04 44.43754 25.98789 4123 ft 249 kts 236°
2026-04-30 09:04 44.43118 25.96579 3931 ft 242 kts 261°
2026-04-30 09:05 44.43104 25.94294 3818 ft 229 kts 283°
2026-04-30 09:05 44.43608 25.92275 3623 ft 213 kts 304°
2026-04-30 09:05 44.44475 25.90718 3361 ft 191 kts 324°
2026-04-30 09:05 44.45526 25.89596 3272 ft 189 kts 333°
2026-04-30 09:06 44.46625 25.88609 3269 ft 187 kts 334°
2026-04-30 09:06 44.47725 25.87655 3262 ft 185 kts 336°
2026-04-30 09:06 44.48829 25.86766 3265 ft 182 kts 339°
2026-04-30 09:06 44.49936 25.85921 3265 ft 181 kts 340°
2026-04-30 09:07 44.51044 25.85098 3265 ft 179 kts 341°
2026-04-30 09:07 44.52140 25.84289 3280 ft 175 kts 344°
2026-04-30 09:07 44.53189 25.83870 3286 ft 143 kts 11°
2026-04-30 09:07 44.54109 25.84136 3286 ft 133 kts 35°
2026-04-30 09:08 44.54726 25.85021 3273 ft 128 kts 69°
2026-04-30 09:08 44.54926 25.86238 3171 ft 128 kts 88°
2026-04-30 09:08 44.54953 25.87425 3025 ft 116 kts 89°
2026-04-30 09:08 44.55009 25.88538 2876 ft 115 kts 83°
2026-04-30 09:09 44.55079 25.89667 2739 ft 117 kts 84°
2026-04-30 09:09 44.55166 25.90800 2592 ft 117 kts 83°
2026-04-30 09:09 44.55252 25.91938 2445 ft 117 kts 83°
2026-04-30 09:09 44.55340 25.93083 2294 ft 118 kts 83°
2026-04-30 09:10 44.55427 25.94236 2150 ft 120 kts 83°
2026-04-30 09:10 44.55516 25.95401 1989 ft 120 kts 82°
2026-04-30 09:10 44.55604 25.96562 1840 ft 120 kts 83°
2026-04-30 09:10 44.55693 25.97733 1687 ft 121 kts 84°
2026-04-30 09:11 44.55782 25.98900 1529 ft 119 kts 84°
2026-04-30 09:11 44.55869 26.00050 1377 ft 118 kts 84°
2026-04-30 09:11 44.55955 26.01203 1214 ft 120 kts 83°
2026-04-30 09:11 44.56045 26.02377 1053 ft 121 kts 84°
2026-04-30 09:12 44.56134 26.03539 896 ft 121 kts 83°
2026-04-30 09:12 44.56224 26.04701 746 ft 120 kts 81°
2026-04-30 09:12 44.56312 26.05879 593 ft 122 kts 82°
2026-04-30 09:12 44.56407 26.07051 458 ft 122 kts 83°
2026-04-30 09:13 44.56504 26.08224 321 ft 119 kts 84°
2026-04-30 09:13 44.56539 26.08821 321 ft 14 kts 79°
2026-04-30 09:13 44.56560 26.09011 323 ft 20 kts 103°
2026-04-30 09:13 44.56571 26.09142 322 ft 12 kts 82°
2026-04-30 09:14 44.56570 26.09248 320 ft 0 kts 120°
2026-04-30 09:14 44.56574 26.09306 321 ft 0 kts 104°